• In Deutschland
  • Länderverzeichnis
  • Für 7 Tage
  • Wassertemperatur
  • Satellitenkarten
  • Wetterkarte
  • Widgets
  • user-avatar
    Anmelden

    Stündliche Wetter Scharan

    Heute, 17 August, Donnerstag

    Zeit Temperatur Niederschläge Wind Luftdruck Luftfeuchtigkeit
    00:00 +23°C° 0 mm 2 m/S 586 mmHg 15%
    01:00 +21°C° 0 mm 2 m/S 586 mmHg 15%
    02:00 +20°C° 0 mm 2 m/S 585 mmHg 15%
    03:00 +19°C° 0 mm 2 m/S 585 mmHg 15%
    04:00 +20°C° 0 mm 1 m/S 585 mmHg 15%
    05:00 +19°C° 0 mm 1 m/S 584 mmHg 19%
    06:00 +20°C° 0 mm 1 m/S 585 mmHg 17%
    07:00 +21°C° 0 mm 1 m/S 586 mmHg 15%
    08:00 +23°C° 0 mm 1 m/S 586 mmHg 13%
    09:00 +24°C° 0 mm 1 m/S 587 mmHg 12%
    10:00 +26°C° 0 mm 1 m/S 587 mmHg 10%
    11:00 +27°C° 0 mm 1 m/S 588 mmHg 9%
    12:00 +28°C° 0 mm 1 m/S 588 mmHg 9%
    13:00 +29°C° 0 mm 1 m/S 588 mmHg 8%
    14:00 +30°C° 0 mm 2 m/S 588 mmHg 8%
    15:00 +30°C° 0 mm 2 m/S 588 mmHg 8%
    16:00 +31°C° 0 mm 2 m/S 588 mmHg 8%
    17:00 +31°C° 0 mm 3 m/S 587 mmHg 7%
    18:00 +30°C° 0 mm 2 m/S 587 mmHg 8%
    19:00 +29°C° 0 mm 2 m/S 587 mmHg 9%
    20:00 +28°C° 0 mm 2 m/S 587 mmHg 10%
    21:00 +27°C° 0 mm 2 m/S 587 mmHg 12%
    22:00 +26°C° 0 mm 2 m/S 587 mmHg 14%
    23:00 +25°C° 0 mm 2 m/S 586 mmHg 15%

    Morgen, 18 August, Freitag

    Zeit Temperatur Niederschläge Wind Luftdruck Luftfeuchtigkeit
    00:00 +24°C° 0 mm 2 m/S 586 mmHg 17%
    01:00 +23°C° 0 mm 2 m/S 586 mmHg 19%
    02:00 +23°C° 0 mm 2 m/S 585 mmHg 21%
    03:00 +21°C° 0 mm 2 m/S 585 mmHg 22%
    04:00 +20°C° 0 mm 2 m/S 585 mmHg 23%
    05:00 +21°C° 0 mm 1 m/S 585 mmHg 24%
    06:00 +21°C° 0 mm 2 m/S 586 mmHg 22%
    07:00 +23°C° 0 mm 2 m/S 586 mmHg 20%
    08:00 +24°C° 0 mm 2 m/S 587 mmHg 18%
    09:00 +25°C° 0 mm 2 m/S 588 mmHg 16%
    10:00 +26°C° 0 mm 1 m/S 588 mmHg 13%
    11:00 +28°C° 0 mm 1 m/S 589 mmHg 11%
    12:00 +29°C° 0 mm 2 m/S 589 mmHg 10%
    13:00 +30°C° 0 mm 2 m/S 589 mmHg 9%
    14:00 +31°C° 0 mm 3 m/S 589 mmHg 8%
    15:00 +31°C° 0 mm 3 m/S 589 mmHg 8%
    16:00 +32°C° 0 mm 4 m/S 589 mmHg 7%
    17:00 +32°C° 0 mm 4 m/S 588 mmHg 7%
    18:00 +30°C° 0 mm 4 m/S 588 mmHg 10%
    19:00 +29°C° 0 mm 4 m/S 588 mmHg 12%
    20:00 +28°C° 0 mm 3 m/S 587 mmHg 14%
    21:00 +27°C° 0 mm 3 m/S 587 mmHg 18%
    22:00 +26°C° 0 mm 3 m/S 587 mmHg 22%
    23:00 +25°C° 0 mm 3 m/S 587 mmHg 26%

    übermorgen, 19 August, Samstag

    Zeit Temperatur Niederschläge Wind Luftdruck Luftfeuchtigkeit
    00:00 +24°C° 0 mm 2 m/S 587 mmHg 28%
    01:00 +24°C° 0 mm 2 m/S 587 mmHg 31%
    02:00 +23°C° 0 mm 2 m/S 586 mmHg 33%
    03:00 +21°C° 0 mm 2 m/S 586 mmHg 34%
    04:00 +22°C° 0 mm 1 m/S 586 mmHg 35%
    05:00 +21°C° 0 mm 1 m/S 586 mmHg 36%
    06:00 +22°C° 0 mm 1 m/S 586 mmHg 33%
    07:00 +23°C° 0 mm 1 m/S 587 mmHg 30%
    08:00 +24°C° 0 mm 1 m/S 588 mmHg 27%
    09:00 +25°C° 0 mm 1 m/S 588 mmHg 23%
    10:00 +26°C° 0 mm 1 m/S 589 mmHg 19%
    11:00 +28°C° 0 mm 1 m/S 589 mmHg 14%
    12:00 +29°C° 0 mm 2 m/S 589 mmHg 12%
    13:00 +30°C° 0 mm 3 m/S 589 mmHg 10%
    14:00 +31°C° 0 mm 3 m/S 589 mmHg 8%
    15:00 +32°C° 0 mm 4 m/S 589 mmHg 8%
    16:00 +32°C° 0 mm 4 m/S 589 mmHg 7%
    17:00 +33°C° 0 mm 5 m/S 589 mmHg 6%
    18:00 +32°C° 0 mm 4 m/S 589 mmHg 8%
    19:00 +29°C° 0 mm 4 m/S 589 mmHg 9%
    20:00 +28°C° 0 mm 4 m/S 588 mmHg 10%
    21:00 +27°C° 0 mm 3 m/S 588 mmHg 13%
    22:00 +26°C° 0 mm 3 m/S 588 mmHg 16%
    23:00 +25°C° 0 mm 2 m/S 588 mmHg 19%

    20 August, Sonntag

    Zeit Temperatur Niederschläge Wind Luftdruck Luftfeuchtigkeit
    00:00 +25°C° 0 mm 2 m/S 588 mmHg 22%
    01:00 +24°C° 0 mm 2 m/S 587 mmHg 25%
    02:00 +23°C° 0 mm 2 m/S 587 mmHg 28%
    03:00 +21°C° 0 mm 2 m/S 587 mmHg 30%
    04:00 +21°C° 0 mm 2 m/S 587 mmHg 32%
    05:00 +21°C° 0 mm 1 m/S 586 mmHg 34%
    06:00 +22°C° 0 mm 1 m/S 587 mmHg 33%
    07:00 +23°C° 0 mm 2 m/S 588 mmHg 31%
    08:00 +24°C° 0 mm 2 m/S 588 mmHg 29%
    09:00 +25°C° 0 mm 1 m/S 589 mmHg 25%
    10:00 +26°C° 0 mm 1 m/S 589 mmHg 21%
    11:00 +28°C° 0 mm 1 m/S 589 mmHg 17%
    12:00 +29°C° 0 mm 1 m/S 589 mmHg 15%
    13:00 +30°C° 0 mm 2 m/S 589 mmHg 13%
    14:00 +31°C° 0 mm 2 m/S 589 mmHg 10%
    15:00 +31°C° 0 mm 3 m/S 589 mmHg 10%
    16:00 +31°C° 0 mm 3 m/S 589 mmHg 10%
    17:00 +32°C° 0 mm 4 m/S 588 mmHg 10%
    18:00 +30°C° 0 mm 4 m/S 588 mmHg 12%
    19:00 +29°C° 0 mm 3 m/S 588 mmHg 15%
    20:00 +28°C° 0 mm 3 m/S 588 mmHg 17%
    21:00 +27°C° 0 mm 3 m/S 588 mmHg 22%
    22:00 +26°C° 0 mm 3 m/S 588 mmHg 26%
    23:00 +25°C° 0 mm 3 m/S 588 mmHg 31%

    21 August, Montag

    Zeit Temperatur Niederschläge Wind Luftdruck Luftfeuchtigkeit
    00:00 +25°C° 0 mm 3 m/S 587 mmHg 35%
    01:00 +24°C° 0 mm 2 m/S 587 mmHg 40%
    02:00 +23°C° 0 mm 2 m/S 586 mmHg 45%
    03:00 +23°C° 0 mm 2 m/S 586 mmHg 44%
    04:00 +21°C° 0 mm 2 m/S 586 mmHg 44%
    05:00 +21°C° 0 mm 2 m/S 586 mmHg 44%
    06:00 +21°C° 0 mm 2 m/S 587 mmHg 42%
    07:00 +23°C° 0 mm 2 m/S 587 mmHg 39%
    08:00 +22°C° 0 mm 3 m/S 588 mmHg 37%
    09:00 +24°C° 0 mm 2 m/S 588 mmHg 33%
    10:00 +25°C° 0 mm 2 m/S 588 mmHg 30%
    11:00 +27°C° 0 mm 2 m/S 589 mmHg 27%
    12:00 +28°C° 0 mm 2 m/S 588 mmHg 24%
    13:00 +29°C° 0 mm 2 m/S 588 mmHg 21%
    14:00 +30°C° 0 mm 2 m/S 588 mmHg 18%
    15:00 +30°C° 0 mm 2 m/S 588 mmHg 17%
    16:00 +30°C° 0 mm 3 m/S 588 mmHg 16%
    17:00 +30°C° 0 mm 3 m/S 587 mmHg 16%
    18:00 +29°C° 0 mm 3 m/S 587 mmHg 18%
    19:00 +29°C° 0 mm 3 m/S 587 mmHg 21%
    20:00 +28°C° 0 mm 3 m/S 587 mmHg 24%
    21:00 +27°C° 0,1 mm 3 m/S 587 mmHg 28%
    22:00 +26°C° 0,1 mm 3 m/S 587 mmHg 31%
    23:00 +25°C° 0,1 mm 3 m/S 587 mmHg 35%

    22 August, Dienstag

    Zeit Temperatur Niederschläge Wind Luftdruck Luftfeuchtigkeit
    00:00 +24°C° 0 mm 3 m/S 587 mmHg 39%
    01:00 +24°C° 0 mm 3 m/S 586 mmHg 42%
    02:00 +22°C° 0 mm 3 m/S 586 mmHg 46%
    03:00 +21°C° 0 mm 2 m/S 586 mmHg 48%
    04:00 +21°C° 0 mm 2 m/S 586 mmHg 51%
    05:00 +21°C° 0 mm 1 m/S 586 mmHg 53%
    06:00 +21°C° 0 mm 2 m/S 586 mmHg 51%
    07:00 +21°C° 0 mm 2 m/S 587 mmHg 48%
    08:00 +23°C° 0 mm 2 m/S 587 mmHg 46%
    09:00 +24°C° 0 mm 2 m/S 588 mmHg 41%
    10:00 +25°C° 0 mm 2 m/S 588 mmHg 37%
    11:00 +26°C° 0 mm 1 m/S 588 mmHg 32%
    12:00 +27°C° 0,1 mm 2 m/S 588 mmHg 27%
    13:00 +29°C° 0,1 mm 2 m/S 588 mmHg 23%
    14:00 +30°C° 0,1 mm 3 m/S 588 mmHg 18%
    15:00 +30°C° 0,1 mm 3 m/S 588 mmHg 17%
    16:00 +30°C° 0,1 mm 4 m/S 588 mmHg 15%
    17:00 +32°C° 0,1 mm 4 m/S 588 mmHg 14%
    18:00 +30°C° 0,1 mm 4 m/S 588 mmHg 16%
    19:00 +29°C° 0,1 mm 4 m/S 587 mmHg 19%
    20:00 +28°C° 0,1 mm 4 m/S 587 mmHg 21%
    21:00 +27°C° 0,1 mm 4 m/S 587 mmHg 27%
    22:00 +26°C° 0,1 mm 4 m/S 587 mmHg 33%
    23:00 +25°C° 0,1 mm 3 m/S 587 mmHg 39%
    Mehr zeigen